This is the latest recevied weather packets stored in our database for station/object SQ2WB-13. If no packets are shown the sender has not sent any weather packets the latest 10 day(s).
| Time | Temp. | Humidity | Pressure | Rain* | Wind** | Luminosity | Snow |
|---|---|---|---|---|---|---|---|
| 1777985101 | 20° C | 68% | 999.6 hPa | 0 mm | - | - | - |
| 1777984201 | 20° C | 68% | 1000 hPa | 0 mm | - | - | - |
| 1777983302 | 20° C | 69% | 1000 hPa | 0 mm | - | - | - |
| 1777982402 | 20° C | 68% | 1000 hPa | 0 mm | - | - | - |
| 1777981501 | 20° C | 67% | 1000 hPa | 0 mm | - | - | - |
| 1777980602 | 20.56° C | 68% | 1000 hPa | 0 mm | - | - | - |
| 1777979703 | 20° C | 68% | 1000.3 hPa | 0 mm | - | - | - |
| 1777978802 | 20° C | 69% | 1000.3 hPa | 0 mm | - | - | - |
| 1777977902 | 18.89° C | 70% | 1000.3 hPa | 0 mm | - | - | - |
| 1777977002 | 18.89° C | 72% | 1000.3 hPa | 0 mm | - | - | - |
| 1777976101 | 18.89° C | 72% | 1000.3 hPa | 0 mm | - | - | - |
| 1777975201 | 18.89° C | 71% | 1000.3 hPa | 0 mm | - | - | - |
| 1777974302 | 18.89° C | 72% | 1000.6 hPa | 0 mm | - | - | - |
| 1777973402 | 17.78° C | 75% | 1000.6 hPa | 0 mm | - | - | - |
| 1777972503 | 17.78° C | 76% | 1000.6 hPa | 0 mm | - | - | - |
| 1777971601 | 17.78° C | 72% | 1001 hPa | 0 mm | - | - | - |
| 1777970701 | 18.89° C | 71% | 1001 hPa | 0 mm | - | - | - |
| 1777969801 | 18.89° C | 76% | 1001 hPa | 0 mm | - | - | - |
| 1777968901 | 17.78° C | 82% | 1001 hPa | 0 mm | - | - | - |
| 1777968002 | 16.67° C | 84% | 1001.3 hPa | 0 mm | - | - | - |
| 1777967101 | 16.67° C | 84% | 1001.3 hPa | 0 mm | - | - | - |
| 1777966202 | 16.67° C | 86% | 1001.3 hPa | 0 mm | - | - | - |
| 1777965302 | 15.56° C | 88% | 1001.3 hPa | 0 mm | - | - | - |
| 1777964401 | 13.89° C | 93% | 1001.3 hPa | 0 mm | - | - | - |
| 1777963502 | 13.89° C | 94% | 1001.3 hPa | 0 mm | - | - | - |
* Rain latest hour (hover to see other rain measurements)
** Current wind speed in m/s (hover to see current wind gust speed)